Time,TemperatureF,DewpointF,PressureIn,WindDirection,WindDirectionDegrees,WindSpeedMPH,WindSpeedGustMPH,Humidity,HourlyPrecipIn,Conditions,Clouds,dailyrainin,SoftwareType,DateUTC
2013-02-14 00:09:00,32.9,30.0,30.03,WNW,285,0.0,4.0,88,0.00,,,0.20,weatherlink.com 1.10,2013-02-14 05:09:00,
2013-02-14 00:24:00,32.7,30.0,30.03,NW,314,0.0,4.0,88,0.00,,,0.20,weatherlink.com 1.10,2013-02-14 05:24:00,
2013-02-14 00:39:00,32.7,29.0,30.04,SSW,200,0.0,3.0,86,0.00,,,0.20,weatherlink.com 1.10,2013-02-14 05:39:00,
2013-02-14 00:54:00,32.5,29.0,30.04,West,270,0.0,3.0,87,0.00,,,0.20,weatherlink.com 1.10,2013-02-14 05:54:00,
2013-02-14 01:09:00,32.3,29.0,30.04,East,93,0.0,2.0,87,0.00,,,0.20,weatherlink.com 1.10,2013-02-14 06:09:00,
2013-02-14 01:39:00,30.9,28.0,30.04,SSE,156,0.0,4.0,88,0.00,,,0.20,weatherlink.com 1.10,2013-02-14 06:39:00,
2013-02-14 01:54:00,30.1,27.0,30.06,SSW,205,0.0,1.0,88,0.00,,,0.20,weatherlink.com 1.10,2013-02-14 06:54:00,
2013-02-14 02:09:00,29.7,27.0,30.06,SW,224,0.0,1.0,88,0.00,,,0.20,weatherlink.com 1.10,2013-02-14 07:09:00,
2013-02-14 02:24:00,29.0,26.0,30.06,SW,224,0.0,0.0,89,0.00,,,0.20,weatherlink.com 1.10,2013-02-14 07:24:00,
2013-02-14 02:39:00,28.4,26.0,30.06,SW,224,0.0,0.0,90,0.00,,,0.20,weatherlink.com 1.10,2013-02-14 07:39:00,
2013-02-14 02:55:00,28.3,26.0,30.06,SW,224,0.0,0.0,90,0.00,,,0.20,weatherlink.com 1.10,2013-02-14 07:55:00,
2013-02-14 03:09:00,28.5,26.0,30.07,SSE,165,0.0,1.0,90,0.00,,,0.20,weatherlink.com 1.10,2013-02-14 08:09:00,
2013-02-14 03:25:00,28.2,26.0,30.07,SSE,165,0.0,0.0,91,0.00,,,0.00,weatherlink.com 1.10,2013-02-14 08:25:00,
2013-02-14 03:40:00,28.4,26.0,30.07,SSE,150,0.0,1.0,91,0.00,,,0.00,weatherlink.com 1.10,2013-02-14 08:40:00,
2013-02-14 03:55:00,28.3,26.0,30.07,South,173,0.0,1.0,91,0.00,,,0.00,weatherlink.com 1.10,2013-02-14 08:55:00,
2013-02-14 04:10:00,28.1,26.0,30.07,SSW,201,0.0,0.0,92,0.00,,,0.00,weatherlink.com 1.10,2013-02-14 09:10:00,
2013-02-14 04:40:00,27.2,26.0,30.08,SSW,201,0.0,0.0,94,0.00,,,0.00,weatherlink.com 1.10,2013-02-14 09:40:00,
2013-02-14 04:55:00,27.1,26.0,30.07,SSW,201,0.0,0.0,95,0.00,,,0.00,weatherlink.com 1.10,2013-02-14 09:55:00,
2013-02-14 05:10:00,26.9,25.0,30.07,SSW,201,0.0,0.0,94,0.00,,,0.00,weatherlink.com 1.10,2013-02-14 10:10:00,
2013-02-14 05:25:00,26.3,25.0,30.08,SSW,201,0.0,0.0,95,0.00,,,0.00,weatherlink.com 1.10,2013-02-14 10:25:00,
2013-02-14 05:40:00,26.4,25.0,30.08,SSW,201,0.0,1.0,95,0.00,,,0.00,weatherlink.com 1.10,2013-02-14 10:40:00,
2013-02-14 05:55:00,26.2,25.0,30.08,SSW,201,0.0,1.0,95,0.00,,,0.00,weatherlink.com 1.10,2013-02-14 10:55:00,
2013-02-14 06:10:00,25.9,25.0,30.08,SSW,201,0.0,1.0,95,0.00,,,0.00,weatherlink.com 1.10,2013-02-14 11:10:00,
2013-02-14 06:25:00,25.5,24.0,30.09,SSW,201,0.0,0.0,95,0.00,,,0.00,weatherlink.com 1.10,2013-02-14 11:25:00,
2013-02-14 06:40:00,25.3,24.0,30.09,SSW,202,0.0,0.0,95,0.00,,,0.00,weatherlink.com 1.10,2013-02-14 11:40:00,
2013-02-14 06:55:00,25.1,24.0,30.09,SSW,201,0.0,0.0,96,0.00,,,0.00,weatherlink.com 1.10,2013-02-14 11:55:00,
2013-02-14 07:10:00,25.1,24.0,30.09,SSW,202,0.0,0.0,96,0.00,,,0.00,weatherlink.com 1.10,2013-02-14 12:10:00,
2013-02-14 07:25:00,24.9,24.0,30.10,SSW,201,0.0,0.0,96,0.00,,,0.00,weatherlink.com 1.10,2013-02-14 12:25:00,
2013-02-14 07:55:00,25.0,24.0,30.10,SSW,202,0.0,0.0,96,0.00,,,0.00,weatherlink.com 1.10,2013-02-14 12:55:00,
2013-02-14 08:10:00,24.8,24.0,30.11,SSW,202,0.0,0.0,96,0.00,,,0.00,weatherlink.com 1.10,2013-02-14 13:10:00,
2013-02-14 08:25:00,26.3,26.0,30.12,SSW,201,0.0,1.0,97,0.00,,,0.00,weatherlink.com 1.10,2013-02-14 13:25:00,
2013-02-14 08:40:00,27.7,27.0,30.12,SSE,154,0.0,1.0,97,0.00,,,0.00,weatherlink.com 1.10,2013-02-14 13:40:00,
2013-02-14 08:55:00,29.4,28.0,30.12,SSE,151,0.0,1.0,96,0.00,,,0.00,weatherlink.com 1.10,2013-02-14 13:55:00,
2013-02-14 09:10:00,30.8,29.0,30.13,WSW,250,0.0,1.0,93,0.00,,,0.00,weatherlink.com 1.10,2013-02-14 14:10:00,
2013-02-14 09:26:00,32.1,29.0,30.13,South,171,0.0,1.0,88,0.00,,,0.00,weatherlink.com 1.10,2013-02-14 14:26:00,
2013-02-14 09:40:00,34.4,30.0,30.12,ESE,115,1.0,2.0,83,0.00,,,0.00,weatherlink.com 1.10,2013-02-14 14:40:00,
2013-02-14 09:56:00,35.4,30.0,30.12,SSW,203,2.0,3.0,80,0.00,,,0.00,weatherlink.com 1.10,2013-02-14 14:56:00,
2013-02-14 10:11:00,36.4,30.0,30.12,SSW,204,4.0,10.0,76,0.00,,,0.00,weatherlink.com 1.10,2013-02-14 15:11:00,
2013-02-14 10:25:00,37.0,30.0,30.12,SSE,163,4.0,10.0,76,0.00,,,0.00,weatherlink.com 1.10,2013-02-14 15:25:00,
2013-02-14 10:41:00,38.1,30.0,30.13,South,181,3.0,9.0,73,0.00,,,0.00,weatherlink.com 1.10,2013-02-14 15:41:00,
2013-02-14 10:59:00,39.4,30.0,30.13,South,188,7.0,11.0,70,0.00,,,0.00,weatherlink.com 1.10,2013-02-14 15:59:00,
2013-02-14 11:11:00,40.1,31.0,30.13,SW,226,2.0,10.0,69,0.00,,,0.00,weatherlink.com 1.10,2013-02-14 16:11:00,
2013-02-14 11:26:00,40.8,30.0,30.12,West,281,2.0,14.0,66,0.00,,,0.00,weatherlink.com 1.10,2013-02-14 16:26:00,
2013-02-14 11:41:00,41.3,30.0,30.12,WNW,302,2.0,11.0,64,0.00,,,0.00,weatherlink.com 1.10,2013-02-14 16:41:00,
2013-02-14 11:56:00,41.8,30.0,30.11,SSE,166,8.0,10.0,63,0.00,,,0.00,weatherlink.com 1.10,2013-02-14 16:56:00,
2013-02-14 12:11:00,42.2,31.0,30.11,SSE,165,9.0,12.0,65,0.00,,,0.00,weatherlink.com 1.10,2013-02-14 17:11:00,
2013-02-14 12:26:00,42.4,30.0,30.10,SSE,165,4.0,11.0,63,0.00,,,0.00,weatherlink.com 1.10,2013-02-14 17:26:00,
2013-02-14 12:41:00,43.5,30.0,30.10,South,184,3.0,12.0,59,0.00,,,0.00,weatherlink.com 1.10,2013-02-14 17:41:00,
2013-02-14 12:56:00,44.5,30.0,30.09,SSW,203,3.0,10.0,58,0.00,,,0.00,weatherlink.com 1.10,2013-02-14 17:56:00,
2013-02-14 13:11:00,44.4,31.0,30.09,SSE,158,2.0,12.0,59,0.00,,,0.00,weatherlink.com 1.10,2013-02-14 18:11:00,
2013-02-14 13:26:00,44.9,32.0,30.09,SW,222,2.0,10.0,60,0.00,,,0.00,weatherlink.com 1.10,2013-02-14 18:26:00,
2013-02-14 13:41:00,44.9,31.0,30.08,South,169,7.0,14.0,58,0.00,,,0.00,weatherlink.com 1.10,2013-02-14 18:41:00,
2013-02-14 13:56:00,46.0,31.0,30.07,SSW,210,6.0,12.0,57,0.00,,,0.00,weatherlink.com 1.10,2013-02-14 18:56:00,
2013-02-14 14:11:00,46.7,31.0,30.06,WNW,283,0.0,10.0,54,0.00,,,0.00,weatherlink.com 1.10,2013-02-14 19:11:00,
2013-02-14 14:27:00,46.9,32.0,30.06,WNW,287,3.0,9.0,56,0.00,,,0.00,weatherlink.com 1.10,2013-02-14 19:27:00,
2013-02-14 14:41:00,47.1,31.0,30.06,SSW,193,7.0,12.0,54,0.00,,,0.00,weatherlink.com 1.10,2013-02-14 19:41:00,
2013-02-14 14:56:00,47.5,32.0,30.05,SSE,168,3.0,12.0,55,0.00,,,0.00,weatherlink.com 1.10,2013-02-14 19:56:00,
2013-02-14 15:11:00,47.9,33.0,30.04,SSW,197,2.0,12.0,56,0.00,,,0.00,weatherlink.com 1.10,2013-02-14 20:11:00,
2013-02-14 15:27:00,47.6,31.0,30.04,WSW,246,1.0,11.0,54,0.00,,,0.00,weatherlink.com 1.10,2013-02-14 20:27:00,
2013-02-14 15:41:00,48.1,31.0,30.05,South,172,5.0,11.0,52,0.00,,,0.00,weatherlink.com 1.10,2013-02-14 20:41:00,
2013-02-14 15:57:00,47.4,31.0,30.05,South,177,5.0,14.0,54,0.00,,,0.00,weatherlink.com 1.10,2013-02-14 20:57:00,
2013-02-14 16:11:00,46.6,31.0,30.05,South,169,6.0,13.0,55,0.00,,,0.00,weatherlink.com 1.10,2013-02-14 21:11:00,
2013-02-14 16:26:00,47.3,31.0,30.05,SSE,159,3.0,10.0,54,0.00,,,0.00,weatherlink.com 1.10,2013-02-14 21:26:00,
2013-02-14 16:56:00,46.5,31.0,30.07,South,174,4.0,10.0,56,0.00,,,0.00,weatherlink.com 1.10,2013-02-14 21:56:00,
2013-02-14 17:12:00,46.1,31.0,30.07,South,183,4.0,12.0,57,0.00,,,0.00,weatherlink.com 1.10,2013-02-14 22:12:00,
2013-02-14 17:27:00,46.0,32.0,30.07,SW,215,4.0,10.0,59,0.00,,,0.00,weatherlink.com 1.10,2013-02-14 22:27:00,
2013-02-14 17:41:00,45.6,32.0,30.07,SSW,200,3.0,9.0,60,0.00,,,0.00,weatherlink.com 1.10,2013-02-14 22:41:00,
2013-02-14 17:56:00,45.3,32.0,30.08,South,169,5.0,7.0,59,0.00,,,0.00,weatherlink.com 1.10,2013-02-14 22:56:00,
2013-02-14 18:11:00,44.9,32.0,30.08,SSW,207,3.0,9.0,60,0.00,,,0.00,weatherlink.com 1.10,2013-02-14 23:11:00,
2013-02-14 18:27:00,44.1,32.0,30.08,South,173,0.0,6.0,62,0.00,,,0.00,weatherlink.com 1.10,2013-02-14 23:27:00,
2013-02-14 18:41:00,43.1,32.0,30.09,SSE,162,0.0,3.0,64,0.00,,,0.00,weatherlink.com 1.10,2013-02-14 23:41:00,
2013-02-14 18:57:00,42.2,31.0,30.09,West,271,1.0,4.0,66,0.00,,,0.00,weatherlink.com 1.10,2013-02-14 23:57:00,
2013-02-14 19:12:00,41.3,31.0,30.10,South,188,0.0,3.0,67,0.00,,,0.00,weatherlink.com 1.10,2013-02-15 00:12:00,
2013-02-14 19:27:00,40.4,31.0,30.09,South,169,0.0,0.0,70,0.00,,,0.00,weatherlink.com 1.10,2013-02-15 00:27:00,
2013-02-14 19:42:00,39.2,31.0,30.10,South,169,0.0,0.0,72,0.00,,,0.00,weatherlink.com 1.10,2013-02-15 00:42:00,
2013-02-14 19:57:00,38.9,31.0,30.10,SSE,153,0.0,1.0,73,0.00,,,0.00,weatherlink.com 1.10,2013-02-15 00:57:00,
2013-02-14 20:12:00,38.1,31.0,30.10,SSE,153,0.0,0.0,75,0.00,,,0.00,weatherlink.com 1.10,2013-02-15 01:12:00,
2013-02-14 20:27:00,37.5,31.0,30.10,SSE,153,0.0,0.0,76,0.00,,,0.00,weatherlink.com 1.10,2013-02-15 01:27:00,
2013-02-14 20:42:00,36.7,30.0,30.10,SSE,153,0.0,0.0,77,0.00,,,0.00,weatherlink.com 1.10,2013-02-15 01:42:00,
2013-02-14 20:57:00,36.3,30.0,30.10,SSE,153,0.0,1.0,79,0.00,,,0.00,weatherlink.com 1.10,2013-02-15 01:57:00,
2013-02-14 21:12:00,36.5,30.0,30.10,SE,129,0.0,1.0,78,0.00,,,0.00,weatherlink.com 1.10,2013-02-15 02:12:00,
2013-02-14 21:27:00,35.2,30.0,30.10,SE,128,0.0,1.0,80,0.00,,,0.00,weatherlink.com 1.10,2013-02-15 02:27:00,
2013-02-14 21:42:00,34.7,30.0,30.10,SE,129,0.0,1.0,82,0.00,,,0.00,weatherlink.com 1.10,2013-02-15 02:42:00,
2013-02-14 21:57:00,33.9,30.0,30.10,SE,127,0.0,1.0,84,0.00,,,0.00,weatherlink.com 1.10,2013-02-15 02:57:00,
2013-02-14 22:12:00,33.2,30.0,30.10,SE,127,0.0,1.0,86,0.00,,,0.00,weatherlink.com 1.10,2013-02-15 03:12:00,
2013-02-14 22:27:00,32.6,29.0,30.11,SE,127,0.0,0.0,86,0.00,,,0.00,weatherlink.com 1.10,2013-02-15 03:27:00,
2013-02-14 22:42:00,32.3,29.0,30.11,SE,127,0.0,0.0,88,0.00,,,0.00,weatherlink.com 1.10,2013-02-15 03:42:00,
2013-02-14 22:57:00,32.1,29.0,30.10,SE,127,0.0,0.0,89,0.00,,,0.00,weatherlink.com 1.10,2013-02-15 03:57:00,
2013-02-14 23:12:00,31.8,29.0,30.11,SE,127,0.0,0.0,88,0.00,,,0.00,weatherlink.com 1.10,2013-02-15 04:12:00,
2013-02-14 23:27:00,31.2,29.0,30.10,SE,144,0.0,1.0,90,0.00,,,0.00,weatherlink.com 1.10,2013-02-15 04:27:00,
2013-02-14 23:42:00,30.8,29.0,30.10,SE,143,0.0,0.0,91,0.00,,,0.00,weatherlink.com 1.10,2013-02-15 04:42:00,
2013-02-14 23:57:00,31.3,29.0,30.10,SE,143,0.0,0.0,91,0.00,,,0.00,weatherlink.com 1.10,2013-02-15 04:57:00,